This is the latest recevied weather packets stored in our database for station/object DO1MIT-10. If no packets are shown the sender has not sent any weather packets the latest 10 day(s).
| Time | Temp. | Humidity | Pressure | Rain* | Wind** | Luminosity | Snow |
|---|---|---|---|---|---|---|---|
| 1787688487 | 17.22° C | 61% | 1019.9 hPa | - | - | - | - |
| 1787687587 | 17.22° C | 60% | 1019.9 hPa | - | - | - | - |
| 1787686687 | 17.22° C | 60% | 1019.8 hPa | - | - | - | - |
| 1787685787 | 17.22° C | 58% | 1019.8 hPa | - | - | - | - |
| 1787684887 | 17.78° C | 57% | 1019.7 hPa | - | - | - | - |
| 1787683987 | 17.78° C | 57% | 1019.7 hPa | - | - | - | - |
| 1787683087 | 17.78° C | 56% | 1019.5 hPa | - | - | - | - |
| 1787682186 | 18.33° C | 55% | 1019.4 hPa | - | - | - | - |
| 1787681286 | 18.33° C | 54% | 1019.3 hPa | - | - | - | - |
| 1787680386 | 18.89° C | 53% | 1019 hPa | - | - | - | - |
| 1787679486 | 18.89° C | 53% | 1018.9 hPa | - | - | - | - |
| 1787678586 | 20° C | 53% | 1018.9 hPa | - | - | - | - |
| 1787677686 | 20.56° C | 53% | 1018.8 hPa | - | - | - | - |
| 1787676786 | 21.11° C | 52% | 1018.8 hPa | - | - | - | - |
| 1787675886 | 21.67° C | 52% | 1018.5 hPa | - | - | - | - |
| 1787674985 | 22.22° C | 51% | 1018.8 hPa | - | - | - | - |
| 1787674085 | 21.67° C | 52% | 1018.7 hPa | - | - | - | - |
| 1787673185 | 21.67° C | 52% | 1018.6 hPa | - | - | - | - |
| 1787672285 | 22.78° C | 51% | 1018.7 hPa | - | - | - | - |
| 1787671385 | 23.33° C | 50% | 1018.4 hPa | - | - | - | - |
| 1787670485 | 24.44° C | 50% | 1018.5 hPa | - | - | - | - |
| 1787669584 | 25° C | 51% | 1018.5 hPa | - | - | - | - |
| 1787668684 | 25.56° C | 51% | 1018.4 hPa | - | - | - | - |
| 1787667784 | 25.56° C | 52% | 1018.3 hPa | - | - | - | - |
| 1787666884 | 25.56° C | 52% | 1018.4 hPa | - | - | - | - |
* Rain since midnight (hover to see other rain measurements)
** Current wind speed in m/s (hover to see current wind gust speed)